Location: Ajisawe
(8.4333°N, 4.3833°E)
Time: 01:30:09
(UTC+00:00)

Courier 1B Rocket - Pass Details

Date: 27 April 2021
Orbit: 920 x 1202 km, 28.3° (Epoch: 13 May)

Event Time Altitude Azimuth Distance (km) Brightness Sun altitude
Rises 19:19:58 0° 315° (NW) 3,606 9.1 -21.7°
Reaches altitude 10° 19:23:52 10° 338° (NNW) 2,706 7.8 -22.6°
Maximum altitude 19:27:28 15° 12° (NNE) 2,403 7.1 -23.4°
Enters shadow 19:30:43 11° 42° (NE) 2,729 7.1 -24.2°
Drops below altitude 10° 19:31:10 10° 45° (NE) 2,811 - -24.3°
Sets 19:35:21 0° 67° (ENE) 3,832 - -25.3°
